Information on these data can be found in provided Readme document
Contact Info: Zachary Fasnacht (zachary.fasnacht@ssaihq.com); Nickolay Krotkov (nickolay.a.krotkov@nasa.gov); Lok Lamsal (lok.lamsal@nasa.gov)

FillValue: -999.
ScaleFactor: 1e15
Units: molecules/cm^2

Date(yyyy-mm-dd),City,Country,LonCenter,LatCenter,BoundingCoordinates,Median,Q1,Q3,Mean,Baseline_Median,Baseline_Q1,Baseline_Q3,Baseline_Mean,NumGoodSamples,NumTotalSamples
2015-01-01,Nagpur,India,79.0882,21.1458,[78.5882 20.6458 79.5882 21.6458],2.914,1.986,3.711,2.914,4.023,2.883,5.436,4.41,187.0,501.0
2015-01-02,Nagpur,India,79.0882,21.1458,[78.5882 20.6458 79.5882 21.6458],2.729,1.558,4.073,2.832,4.023,2.843,5.51,4.448,160.0,521.0
2015-01-03,Nagpur,India,79.0882,21.1458,[78.5882 20.6458 79.5882 21.6458],2.926,1.71,3.746,2.849,4.023,2.885,5.491,4.474,159.0,503.0
2015-01-04,Nagpur,India,79.0882,21.1458,[78.5882 20.6458 79.5882 21.6458],2.962,1.895,3.766,2.957,4.08,2.893,5.525,4.504,166.0,530.0
2015-01-05,Nagpur,India,79.0882,21.1458,[78.5882 20.6458 79.5882 21.6458],3.013,1.986,3.791,3.016,4.071,2.829,5.521,4.478,161.0,516.0
2015-01-06,Nagpur,India,79.0882,21.1458,[78.5882 20.6458 79.5882 21.6458],2.962,1.803,3.766,2.937,3.983,2.742,5.314,4.344,186.0,513.0
2015-01-07,Nagpur,India,79.0882,21.1458,[78.5882 20.6458 79.5882 21.6458],2.94,1.71,3.687,2.872,3.879,2.726,5.179,4.284,167.0,527.0
2015-01-08,Nagpur,India,79.0882,21.1458,[78.5882 20.6458 79.5882 21.6458],2.965,1.901,3.766,2.957,3.727,2.635,5.017,4.092,185.0,501.0
2015-01-09,Nagpur,India,79.0882,21.1458,[78.5882 20.6458 79.5882 21.6458],2.965,1.901,3.766,2.957,3.701,2.59,4.887,4.067,185.0,520.0
2015-01-10,Nagpur,India,79.0882,21.1458,[78.5882 20.6458 79.5882 21.6458],2.965,1.901,3.766,2.957,3.684,2.557,4.924,4.076,185.0,469.0
2015-01-11,Nagpur,India,79.0882,21.1458,[78.5882 20.6458 79.5882 21.6458],2.965,1.901,3.766,2.957,3.667,2.613,4.854,4.006,185.0,499.0
2015-01-12,Nagpur,India,79.0882,21.1458,[78.5882 20.6458 79.5882 21.6458],2.94,1.614,3.766,2.863,3.69,2.547,4.813,3.99,176.0,480.0
2015-01-13,Nagpur,India,79.0882,21.1458,[78.5882 20.6458 79.5882 21.6458],2.94,1.71,3.766,2.894,3.679,2.518,4.92,3.952,208.0,492.0
2015-01-14,Nagpur,India,79.0882,21.1458,[78.5882 20.6458 79.5882 21.6458],2.895,1.71,3.766,2.883,3.692,2.445,4.957,3.964,185.0,488.0
2015-01-15,Nagpur,India,79.0882,21.1458,[78.5882 20.6458 79.5882 21.6458],2.863,1.71,3.707,2.88,3.564,2.339,4.863,3.859,209.0,475.0
2015-01-16,Nagpur,India,79.0882,21.1458,[78.5882 20.6458 79.5882 21.6458],2.805,1.607,3.707,2.851,3.574,2.354,4.882,3.873,190.0,495.0
2015-01-17,Nagpur,India,79.0882,21.1458,[78.5882 20.6458 79.5882 21.6458],2.805,1.607,3.687,2.835,3.543,2.331,4.821,3.824,194.0,466.0
2015-01-18,Nagpur,India,79.0882,21.1458,[78.5882 20.6458 79.5882 21.6458],2.624,1.429,3.855,2.749,3.607,2.411,4.887,3.931,170.0,489.0
2015-01-19,Nagpur,India,79.0882,21.1458,[78.5882 20.6458 79.5882 21.6458],2.386,1.308,3.534,2.555,3.526,2.393,4.73,3.847,156.0,471.0
2015-01-20,Nagpur,India,79.0882,21.1458,[78.5882 20.6458 79.5882 21.6458],2.271,1.226,3.351,2.54,3.652,2.507,4.952,3.985,164.0,497.0
2015-01-21,Nagpur,India,79.0882,21.1458,[78.5882 20.6458 79.5882 21.6458],2.271,1.443,3.259,2.583,3.602,2.491,4.949,4.015,157.0,484.0
2015-01-22,Nagpur,India,79.0882,21.1458,[78.5882 20.6458 79.5882 21.6458],2.291,1.45,3.405,2.653,3.584,2.501,4.841,3.953,185.0,480.0
2015-01-23,Nagpur,India,79.0882,21.1458,[78.5882 20.6458 79.5882 21.6458],2.18,1.308,3.154,2.51,3.599,2.564,4.973,3.991,167.0,496.0
2015-01-24,Nagpur,India,79.0882,21.1458,[78.5882 20.6458 79.5882 21.6458],2.149,1.259,3.154,2.499,3.604,2.566,4.937,3.988,185.0,470.0
2015-01-25,Nagpur,India,79.0882,21.1458,[78.5882 20.6458 79.5882 21.6458],2.149,1.259,3.154,2.499,3.573,2.521,4.875,3.931,185.0,518.0
2015-01-26,Nagpur,India,79.0882,21.1458,[78.5882 20.6458 79.5882 21.6458],2.294,1.583,3.052,2.503,3.521,2.537,4.827,3.902,210.0,497.0
2015-01-27,Nagpur,India,79.0882,21.1458,[78.5882 20.6458 79.5882 21.6458],2.475,1.623,3.052,2.582,3.659,2.636,4.921,3.995,190.0,527.0
2015-01-28,Nagpur,India,79.0882,21.1458,[78.5882 20.6458 79.5882 21.6458],2.475,1.623,3.052,2.551,3.669,2.639,5.02,4.018,172.0,507.0
2015-01-29,Nagpur,India,79.0882,21.1458,[78.5882 20.6458 79.5882 21.6458],2.475,1.597,3.069,2.509,3.645,2.59,4.991,3.966,194.0,521.0
2015-01-30,Nagpur,India,79.0882,21.1458,[78.5882 20.6458 79.5882 21.6458],2.475,1.597,3.052,2.474,3.681,2.707,4.902,3.997,170.0,520.0
2015-01-31,Nagpur,India,79.0882,21.1458,[78.5882 20.6458 79.5882 21.6458],2.488,1.608,3.151,2.569,3.618,2.641,4.875,3.961,197.0,509.0
2015-02-01,Nagpur,India,79.0882,21.1458,[78.5882 20.6458 79.5882 21.6458],2.488,1.623,3.151,2.581,3.619,2.636,4.907,3.953,193.0,530.0
2015-02-02,Nagpur,India,79.0882,21.1458,[78.5882 20.6458 79.5882 21.6458],2.294,1.447,3.052,2.446,3.444,2.46,4.738,3.769,212.0,501.0
2015-02-03,Nagpur,India,79.0882,21.1458,[78.5882 20.6458 79.5882 21.6458],2.475,1.534,3.154,2.543,3.559,2.547,4.853,3.881,199.0,523.0
2015-02-04,Nagpur,India,79.0882,21.1458,[78.5882 20.6458 79.5882 21.6458],2.624,1.633,3.19,2.544,3.548,2.546,4.784,3.783,195.0,508.0
2015-02-05,Nagpur,India,79.0882,21.1458,[78.5882 20.6458 79.5882 21.6458],2.638,1.633,3.261,2.653,3.556,2.556,4.79,3.803,205.0,535.0
2015-02-06,Nagpur,India,79.0882,21.1458,[78.5882 20.6458 79.5882 21.6458],2.624,1.597,3.206,2.573,3.581,2.466,4.781,3.78,195.0,523.0
2015-02-07,Nagpur,India,79.0882,21.1458,[78.5882 20.6458 79.5882 21.6458],2.551,1.568,3.19,2.518,3.587,2.55,4.7,3.778,223.0,518.0
2015-02-08,Nagpur,India,79.0882,21.1458,[78.5882 20.6458 79.5882 21.6458],2.554,1.587,3.19,2.526,3.552,2.535,4.675,3.758,205.0,535.0
2015-02-09,Nagpur,India,79.0882,21.1458,[78.5882 20.6458 79.5882 21.6458],2.488,1.568,3.19,2.475,3.546,2.553,4.639,3.743,224.0,509.0
2015-02-10,Nagpur,India,79.0882,21.1458,[78.5882 20.6458 79.5882 21.6458],2.346,1.33,3.339,2.465,3.549,2.517,4.658,3.768,199.0,528.0
2015-02-11,Nagpur,India,79.0882,21.1458,[78.5882 20.6458 79.5882 21.6458],2.346,1.33,3.339,2.465,3.439,2.384,4.568,3.661,199.0,478.0
2015-02-12,Nagpur,India,79.0882,21.1458,[78.5882 20.6458 79.5882 21.6458],2.329,1.309,3.261,2.425,3.515,2.512,4.659,3.718,185.0,508.0
2015-02-13,Nagpur,India,79.0882,21.1458,[78.5882 20.6458 79.5882 21.6458],2.462,1.375,3.261,2.504,3.522,2.51,4.663,3.72,169.0,487.0
2015-02-14,Nagpur,India,79.0882,21.1458,[78.5882 20.6458 79.5882 21.6458],2.466,1.446,3.312,2.569,3.492,2.493,4.738,3.727,200.0,498.0
2015-02-15,Nagpur,India,79.0882,21.1458,[78.5882 20.6458 79.5882 21.6458],2.346,1.384,3.227,2.467,3.574,2.502,4.781,3.779,173.0,497.0
2015-02-16,Nagpur,India,79.0882,21.1458,[78.5882 20.6458 79.5882 21.6458],2.346,1.384,3.339,2.626,3.6,2.563,4.768,3.835,198.0,485.0
2015-02-17,Nagpur,India,79.0882,21.1458,[78.5882 20.6458 79.5882 21.6458],2.638,1.568,3.442,2.814,3.718,2.71,4.843,3.956,179.0,505.0
2015-02-18,Nagpur,India,79.0882,21.1458,[78.5882 20.6458 79.5882 21.6458],2.81,1.7,3.962,3.054,3.667,2.617,4.828,3.874,199.0,477.0
2015-02-19,Nagpur,India,79.0882,21.1458,[78.5882 20.6458 79.5882 21.6458],2.848,1.484,4.438,3.218,3.692,2.634,4.857,3.924,175.0,498.0
2015-02-20,Nagpur,India,79.0882,21.1458,[78.5882 20.6458 79.5882 21.6458],2.984,1.664,4.153,3.107,3.66,2.579,4.704,3.833,170.0,480.0
2015-02-21,Nagpur,India,79.0882,21.1458,[78.5882 20.6458 79.5882 21.6458],3.14,1.855,4.401,3.225,3.667,2.657,4.761,3.886,179.0,506.0
2015-02-22,Nagpur,India,79.0882,21.1458,[78.5882 20.6458 79.5882 21.6458],3.371,2.038,4.438,3.389,3.666,2.596,4.907,3.883,151.0,492.0
2015-02-23,Nagpur,India,79.0882,21.1458,[78.5882 20.6458 79.5882 21.6458],3.242,1.966,4.438,3.347,3.66,2.692,4.746,3.901,159.0,486.0
2015-02-24,Nagpur,India,79.0882,21.1458,[78.5882 20.6458 79.5882 21.6458],3.418,2.184,4.485,3.569,3.779,2.698,4.9,4.02,140.0,504.0
2015-02-25,Nagpur,India,79.0882,21.1458,[78.5882 20.6458 79.5882 21.6458],3.312,2.061,4.283,3.398,3.842,2.687,4.912,3.998,160.0,477.0
2015-02-26,Nagpur,India,79.0882,21.1458,[78.5882 20.6458 79.5882 21.6458],3.312,2.061,4.283,3.398,3.886,2.716,4.977,4.055,160.0,525.0
2015-02-27,Nagpur,India,79.0882,21.1458,[78.5882 20.6458 79.5882 21.6458],3.13,2.104,4.153,3.359,3.79,2.676,4.841,4.035,185.0,504.0
2015-02-28,Nagpur,India,79.0882,21.1458,[78.5882 20.6458 79.5882 21.6458],3.14,2.085,4.283,3.355,3.792,2.687,4.827,4.035,179.0,534.0
2015-03-01,Nagpur,India,79.0882,21.1458,[78.5882 20.6458 79.5882 21.6458],2.924,2.104,3.91,3.245,3.799,2.755,4.9,4.08,168.0,513.0
2015-03-02,Nagpur,India,79.0882,21.1458,[78.5882 20.6458 79.5882 21.6458],2.873,2.054,3.91,3.19,3.787,2.694,4.899,4.065,200.0,523.0
2015-03-03,Nagpur,India,79.0882,21.1458,[78.5882 20.6458 79.5882 21.6458],2.851,2.054,3.803,3.092,3.836,2.782,4.992,4.109,183.0,519.0
2015-03-04,Nagpur,India,79.0882,21.1458,[78.5882 20.6458 79.5882 21.6458],2.851,2.054,3.778,3.097,3.786,2.83,4.97,4.076,209.0,508.0
2015-03-05,Nagpur,India,79.0882,21.1458,[78.5882 20.6458 79.5882 21.6458],2.729,1.966,3.707,2.938,3.803,2.899,4.989,4.135,207.0,526.0
2015-03-06,Nagpur,India,79.0882,21.1458,[78.5882 20.6458 79.5882 21.6458],2.743,1.978,3.708,2.97,3.833,2.878,5.052,4.194,227.0,496.0
2015-03-07,Nagpur,India,79.0882,21.1458,[78.5882 20.6458 79.5882 21.6458],2.672,1.718,3.649,2.913,3.946,3.004,5.109,4.287,204.0,521.0
2015-03-08,Nagpur,India,79.0882,21.1458,[78.5882 20.6458 79.5882 21.6458],2.425,1.597,3.351,2.676,3.913,2.975,5.157,4.271,192.0,505.0
2015-03-09,Nagpur,India,79.0882,21.1458,[78.5882 20.6458 79.5882 21.6458],2.424,1.541,3.351,2.675,3.918,2.955,5.116,4.259,227.0,532.0
2015-03-10,Nagpur,India,79.0882,21.1458,[78.5882 20.6458 79.5882 21.6458],2.52,1.6,3.491,2.742,3.952,2.998,5.203,4.296,233.0,519.0
2015-03-11,Nagpur,India,79.0882,21.1458,[78.5882 20.6458 79.5882 21.6458],2.492,1.503,3.491,2.729,3.827,2.807,5.123,4.169,257.0,510.0
2015-03-12,Nagpur,India,79.0882,21.1458,[78.5882 20.6458 79.5882 21.6458],2.492,1.503,3.553,2.715,3.829,2.865,5.338,4.272,266.0,528.0
2015-03-13,Nagpur,India,79.0882,21.1458,[78.5882 20.6458 79.5882 21.6458],2.492,1.503,3.553,2.715,3.842,2.848,5.339,4.225,266.0,505.0
2015-03-14,Nagpur,India,79.0882,21.1458,[78.5882 20.6458 79.5882 21.6458],2.373,1.198,3.396,2.579,3.941,2.859,5.437,4.3,241.0,523.0
2015-03-15,Nagpur,India,79.0882,21.1458,[78.5882 20.6458 79.5882 21.6458],2.373,1.198,3.396,2.579,4.044,2.952,5.47,4.375,241.0,473.0
2015-03-16,Nagpur,India,79.0882,21.1458,[78.5882 20.6458 79.5882 21.6458],2.302,1.198,3.578,2.609,4.158,3.167,5.664,4.558,225.0,505.0
2015-03-17,Nagpur,India,79.0882,21.1458,[78.5882 20.6458 79.5882 21.6458],2.232,1.2,3.351,2.54,4.126,3.131,5.592,4.516,213.0,485.0
2015-03-18,Nagpur,India,79.0882,21.1458,[78.5882 20.6458 79.5882 21.6458],2.283,1.211,3.396,2.617,4.133,3.126,5.568,4.507,235.0,499.0
2015-03-19,Nagpur,India,79.0882,21.1458,[78.5882 20.6458 79.5882 21.6458],2.302,1.251,3.697,2.698,4.196,3.134,5.749,4.575,227.0,495.0
2015-03-20,Nagpur,India,79.0882,21.1458,[78.5882 20.6458 79.5882 21.6458],2.547,1.37,3.992,2.967,4.272,3.179,5.794,4.627,234.0,482.0
2015-03-21,Nagpur,India,79.0882,21.1458,[78.5882 20.6458 79.5882 21.6458],2.58,1.251,4.052,3.004,4.354,3.208,5.848,4.687,230.0,503.0
2015-03-22,Nagpur,India,79.0882,21.1458,[78.5882 20.6458 79.5882 21.6458],2.613,1.37,4.212,3.095,4.361,3.264,5.952,4.747,241.0,471.0
2015-03-23,Nagpur,India,79.0882,21.1458,[78.5882 20.6458 79.5882 21.6458],3.078,1.569,4.781,3.433,4.572,3.418,6.187,4.955,226.0,491.0
2015-03-24,Nagpur,India,79.0882,21.1458,[78.5882 20.6458 79.5882 21.6458],3.281,2.063,4.206,3.35,4.576,3.446,6.058,4.896,211.0,470.0
2015-03-25,Nagpur,India,79.0882,21.1458,[78.5882 20.6458 79.5882 21.6458],3.02,1.995,4.187,3.288,4.565,3.421,6.098,4.928,234.0,496.0
2015-03-26,Nagpur,India,79.0882,21.1458,[78.5882 20.6458 79.5882 21.6458],3.071,2.135,4.187,3.33,4.651,3.532,6.145,4.987,230.0,485.0
2015-03-27,Nagpur,India,79.0882,21.1458,[78.5882 20.6458 79.5882 21.6458],3.055,2.086,4.052,3.337,4.529,3.466,5.952,4.873,229.0,480.0
2015-03-28,Nagpur,India,79.0882,21.1458,[78.5882 20.6458 79.5882 21.6458],2.931,1.95,3.99,3.219,4.577,3.477,6.033,4.924,257.0,490.0
2015-03-29,Nagpur,India,79.0882,21.1458,[78.5882 20.6458 79.5882 21.6458],3.014,1.908,4.038,3.202,4.424,3.385,5.868,4.796,276.0,468.0
2015-03-30,Nagpur,India,79.0882,21.1458,[78.5882 20.6458 79.5882 21.6458],3.014,1.908,4.038,3.202,4.426,3.371,5.904,4.766,276.0,514.0
2015-03-31,Nagpur,India,79.0882,21.1458,[78.5882 20.6458 79.5882 21.6458],3.025,2.166,3.898,3.185,4.191,3.23,5.576,4.546,293.0,491.0
2015-04-01,Nagpur,India,79.0882,21.1458,[78.5882 20.6458 79.5882 21.6458],3.177,2.287,4.013,3.287,4.223,3.285,5.662,4.592,279.0,521.0
2015-04-02,Nagpur,India,79.0882,21.1458,[78.5882 20.6458 79.5882 21.6458],3.189,2.287,3.898,3.248,4.123,3.2,5.543,4.523,269.0,500.0
2015-04-03,Nagpur,India,79.0882,21.1458,[78.5882 20.6458 79.5882 21.6458],3.171,2.213,3.898,3.191,4.077,3.143,5.419,4.48,280.0,514.0
2015-04-04,Nagpur,India,79.0882,21.1458,[78.5882 20.6458 79.5882 21.6458],3.018,2.166,3.733,2.986,4.015,3.153,5.323,4.413,259.0,515.0
2015-04-05,Nagpur,India,79.0882,21.1458,[78.5882 20.6458 79.5882 21.6458],2.931,2.166,3.713,2.932,3.958,3.124,5.278,4.348,244.0,500.0
2015-04-06,Nagpur,India,79.0882,21.1458,[78.5882 20.6458 79.5882 21.6458],2.916,2.148,3.672,2.866,3.927,3.102,5.097,4.261,250.0,518.0
2015-04-07,Nagpur,India,79.0882,21.1458,[78.5882 20.6458 79.5882 21.6458],2.916,2.163,3.713,2.905,3.776,3.004,4.923,4.088,258.0,490.0
2015-04-08,Nagpur,India,79.0882,21.1458,[78.5882 20.6458 79.5882 21.6458],2.86,2.072,3.651,2.893,3.813,3.03,4.946,4.13,238.0,515.0
2015-04-09,Nagpur,India,79.0882,21.1458,[78.5882 20.6458 79.5882 21.6458],3.051,2.169,3.686,3.025,3.814,2.979,4.87,4.058,216.0,497.0
2015-04-10,Nagpur,India,79.0882,21.1458,[78.5882 20.6458 79.5882 21.6458],3.051,2.179,3.713,3.075,3.854,3.022,4.952,4.121,231.0,523.0
2015-04-11,Nagpur,India,79.0882,21.1458,[78.5882 20.6458 79.5882 21.6458],3.167,2.351,3.747,3.172,3.858,2.993,4.907,4.103,223.0,509.0
2015-04-12,Nagpur,India,79.0882,21.1458,[78.5882 20.6458 79.5882 21.6458],3.171,2.441,3.855,3.267,3.876,3.064,4.961,4.155,221.0,505.0
2015-04-13,Nagpur,India,79.0882,21.1458,[78.5882 20.6458 79.5882 21.6458],3.171,2.369,3.747,3.249,3.88,3.066,4.972,4.194,231.0,519.0
2015-04-14,Nagpur,India,79.0882,21.1458,[78.5882 20.6458 79.5882 21.6458],3.167,2.354,3.747,3.22,3.884,3.026,4.903,4.141,250.0,497.0
2015-04-15,Nagpur,India,79.0882,21.1458,[78.5882 20.6458 79.5882 21.6458],3.167,2.279,4.005,3.255,3.968,3.084,5.087,4.224,229.0,515.0
2015-04-16,Nagpur,India,79.0882,21.1458,[78.5882 20.6458 79.5882 21.6458],3.167,2.279,4.005,3.259,3.945,3.058,5.11,4.219,223.0,465.0
2015-04-17,Nagpur,India,79.0882,21.1458,[78.5882 20.6458 79.5882 21.6458],3.167,2.291,4.119,3.299,4.018,3.057,5.2,4.261,205.0,496.0
2015-04-18,Nagpur,India,79.0882,21.1458,[78.5882 20.6458 79.5882 21.6458],3.119,2.279,3.916,3.215,4.002,3.011,5.15,4.233,186.0,475.0
2015-04-19,Nagpur,India,79.0882,21.1458,[78.5882 20.6458 79.5882 21.6458],3.0,2.179,3.757,3.126,3.934,2.843,5.112,4.157,212.0,487.0
2015-04-20,Nagpur,India,79.0882,21.1458,[78.5882 20.6458 79.5882 21.6458],2.981,2.179,3.747,3.086,3.97,2.873,5.102,4.173,230.0,489.0
2015-04-21,Nagpur,India,79.0882,21.1458,[78.5882 20.6458 79.5882 21.6458],2.998,2.179,3.797,3.104,4.001,2.87,5.116,4.19,238.0,480.0
2015-04-22,Nagpur,India,79.0882,21.1458,[78.5882 20.6458 79.5882 21.6458],2.98,2.179,3.747,3.068,3.959,2.866,5.15,4.155,247.0,501.0
2015-04-23,Nagpur,India,79.0882,21.1458,[78.5882 20.6458 79.5882 21.6458],3.067,2.209,3.876,3.156,3.928,2.847,5.114,4.129,267.0,474.0
2015-04-24,Nagpur,India,79.0882,21.1458,[78.5882 20.6458 79.5882 21.6458],2.998,2.145,3.916,3.068,3.934,2.923,5.151,4.169,252.0,498.0
2015-04-25,Nagpur,India,79.0882,21.1458,[78.5882 20.6458 79.5882 21.6458],2.981,2.222,3.843,3.091,3.87,2.878,5.092,4.117,235.0,486.0
2015-04-26,Nagpur,India,79.0882,21.1458,[78.5882 20.6458 79.5882 21.6458],2.951,2.181,3.843,3.087,3.873,2.92,5.123,4.142,250.0,512.0
2015-04-27,Nagpur,India,79.0882,21.1458,[78.5882 20.6458 79.5882 21.6458],2.966,2.159,3.913,3.119,3.787,2.795,5.033,4.04,243.0,501.0
2015-04-28,Nagpur,India,79.0882,21.1458,[78.5882 20.6458 79.5882 21.6458],2.981,2.203,4.017,3.161,3.772,2.782,4.983,4.033,241.0,495.0
2015-04-29,Nagpur,India,79.0882,21.1458,[78.5882 20.6458 79.5882 21.6458],3.093,2.222,4.053,3.244,3.78,2.837,5.031,4.102,234.0,505.0
2015-04-30,Nagpur,India,79.0882,21.1458,[78.5882 20.6458 79.5882 21.6458],3.01,2.216,3.979,3.192,3.786,2.798,4.886,4.045,253.0,480.0
2015-05-01,Nagpur,India,79.0882,21.1458,[78.5882 20.6458 79.5882 21.6458],3.01,2.216,3.979,3.192,3.791,2.797,4.924,4.035,253.0,527.0
2015-05-02,Nagpur,India,79.0882,21.1458,[78.5882 20.6458 79.5882 21.6458],3.231,2.307,3.916,3.232,3.759,2.789,4.772,3.992,266.0,505.0
2015-05-03,Nagpur,India,79.0882,21.1458,[78.5882 20.6458 79.5882 21.6458],3.239,2.357,3.964,3.293,3.792,2.843,4.758,4.051,256.0,536.0
2015-05-04,Nagpur,India,79.0882,21.1458,[78.5882 20.6458 79.5882 21.6458],3.347,2.462,4.147,3.423,3.863,2.99,4.843,4.143,236.0,516.0
2015-05-05,Nagpur,India,79.0882,21.1458,[78.5882 20.6458 79.5882 21.6458],3.382,2.435,4.21,3.446,3.765,2.916,4.796,4.1,251.0,525.0
2015-05-06,Nagpur,India,79.0882,21.1458,[78.5882 20.6458 79.5882 21.6458],3.382,2.462,4.147,3.464,3.8,2.914,4.755,4.08,232.0,524.0
2015-05-07,Nagpur,India,79.0882,21.1458,[78.5882 20.6458 79.5882 21.6458],3.382,2.462,4.191,3.488,3.77,2.962,4.823,4.088,221.0,512.0
2015-05-08,Nagpur,India,79.0882,21.1458,[78.5882 20.6458 79.5882 21.6458],3.344,2.462,4.036,3.435,3.838,2.969,4.818,4.128,201.0,530.0
2015-05-09,Nagpur,India,79.0882,21.1458,[78.5882 20.6458 79.5882 21.6458],3.342,2.402,4.128,3.417,3.822,2.953,4.815,4.083,221.0,500.0
2015-05-10,Nagpur,India,79.0882,21.1458,[78.5882 20.6458 79.5882 21.6458],3.344,2.359,4.128,3.401,3.818,2.957,4.814,4.082,203.0,517.0
2015-05-11,Nagpur,India,79.0882,21.1458,[78.5882 20.6458 79.5882 21.6458],3.471,2.752,4.191,3.541,3.779,2.978,4.777,4.036,198.0,503.0
2015-05-12,Nagpur,India,79.0882,21.1458,[78.5882 20.6458 79.5882 21.6458],3.471,2.752,4.205,3.546,3.837,2.987,4.867,4.073,215.0,530.0
2015-05-13,Nagpur,India,79.0882,21.1458,[78.5882 20.6458 79.5882 21.6458],3.471,2.755,4.205,3.569,3.852,3.052,4.953,4.133,206.0,517.0
2015-05-14,Nagpur,India,79.0882,21.1458,[78.5882 20.6458 79.5882 21.6458],3.471,2.752,4.213,3.492,3.88,3.103,5.006,4.135,220.0,518.0
2015-05-15,Nagpur,India,79.0882,21.1458,[78.5882 20.6458 79.5882 21.6458],3.586,2.765,4.262,3.578,3.942,3.141,5.086,4.198,231.0,533.0
2015-05-16,Nagpur,India,79.0882,21.1458,[78.5882 20.6458 79.5882 21.6458],3.448,2.642,4.175,3.447,3.921,3.138,5.081,4.168,251.0,507.0
2015-05-17,Nagpur,India,79.0882,21.1458,[78.5882 20.6458 79.5882 21.6458],3.408,2.479,4.358,3.436,3.99,3.115,5.166,4.221,236.0,526.0
2015-05-18,Nagpur,India,79.0882,21.1458,[78.5882 20.6458 79.5882 21.6458],3.408,2.479,4.358,3.436,3.973,3.045,5.19,4.181,236.0,475.0
2015-05-19,Nagpur,India,79.0882,21.1458,[78.5882 20.6458 79.5882 21.6458],3.35,2.42,4.358,3.39,4.106,3.18,5.177,4.222,226.0,504.0
2015-05-20,Nagpur,India,79.0882,21.1458,[78.5882 20.6458 79.5882 21.6458],3.35,2.479,4.358,3.406,4.151,3.218,5.204,4.276,206.0,485.0
2015-05-21,Nagpur,India,79.0882,21.1458,[78.5882 20.6458 79.5882 21.6458],3.35,2.479,4.358,3.438,4.062,3.24,5.157,4.269,231.0,496.0
2015-05-22,Nagpur,India,79.0882,21.1458,[78.5882 20.6458 79.5882 21.6458],3.424,2.492,4.358,3.479,4.185,3.266,5.455,4.412,233.0,494.0
2015-05-23,Nagpur,India,79.0882,21.1458,[78.5882 20.6458 79.5882 21.6458],3.424,2.42,4.409,3.491,4.151,3.303,5.445,4.391,260.0,484.0
2015-05-24,Nagpur,India,79.0882,21.1458,[78.5882 20.6458 79.5882 21.6458],3.456,2.492,4.457,3.538,4.208,3.35,5.459,4.441,254.0,506.0
2015-05-25,Nagpur,India,79.0882,21.1458,[78.5882 20.6458 79.5882 21.6458],3.448,2.483,4.457,3.523,4.237,3.342,5.444,4.449,256.0,477.0
2015-05-26,Nagpur,India,79.0882,21.1458,[78.5882 20.6458 79.5882 21.6458],3.186,2.148,4.457,3.375,4.277,3.37,5.517,4.507,226.0,496.0
2015-05-27,Nagpur,India,79.0882,21.1458,[78.5882 20.6458 79.5882 21.6458],3.225,2.335,4.174,3.35,4.257,3.387,5.448,4.463,217.0,483.0
2015-05-28,Nagpur,India,79.0882,21.1458,[78.5882 20.6458 79.5882 21.6458],3.225,2.335,4.209,3.418,4.224,3.359,5.388,4.454,229.0,509.0
2015-05-29,Nagpur,India,79.0882,21.1458,[78.5882 20.6458 79.5882 21.6458],3.255,2.335,4.042,3.437,4.233,3.375,5.321,4.444,207.0,494.0
2015-05-30,Nagpur,India,79.0882,21.1458,[78.5882 20.6458 79.5882 21.6458],3.181,2.335,4.042,3.391,4.24,3.361,5.301,4.404,199.0,491.0
2015-05-31,Nagpur,India,79.0882,21.1458,[78.5882 20.6458 79.5882 21.6458],3.338,2.475,4.209,3.522,4.317,3.39,5.429,4.471,209.0,506.0
2015-06-01,Nagpur,India,79.0882,21.1458,[78.5882 20.6458 79.5882 21.6458],3.32,2.501,4.042,3.516,4.224,3.253,5.272,4.365,227.0,480.0
2015-06-02,Nagpur,India,79.0882,21.1458,[78.5882 20.6458 79.5882 21.6458],3.32,2.501,4.042,3.516,4.287,3.339,5.322,4.42,227.0,527.0
2015-06-03,Nagpur,India,79.0882,21.1458,[78.5882 20.6458 79.5882 21.6458],3.021,2.335,3.921,3.365,4.098,3.146,5.281,4.315,242.0,505.0
2015-06-04,Nagpur,India,79.0882,21.1458,[78.5882 20.6458 79.5882 21.6458],3.018,2.349,3.967,3.377,3.957,2.952,5.135,4.184,229.0,536.0
2015-06-05,Nagpur,India,79.0882,21.1458,[78.5882 20.6458 79.5882 21.6458],2.945,2.335,3.848,3.279,3.763,2.79,5.087,4.09,206.0,515.0
2015-06-06,Nagpur,India,79.0882,21.1458,[78.5882 20.6458 79.5882 21.6458],2.925,2.282,3.842,3.198,3.508,2.643,4.618,3.794,205.0,526.0
2015-06-07,Nagpur,India,79.0882,21.1458,[78.5882 20.6458 79.5882 21.6458],2.928,2.335,3.726,3.16,3.404,2.587,4.487,3.679,191.0,524.0
2015-06-08,Nagpur,India,79.0882,21.1458,[78.5882 20.6458 79.5882 21.6458],2.925,2.335,3.67,3.114,3.247,2.506,4.252,3.537,187.0,511.0
2015-06-09,Nagpur,India,79.0882,21.1458,[78.5882 20.6458 79.5882 21.6458],2.925,2.335,3.703,3.127,3.254,2.523,4.24,3.528,193.0,532.0
2015-06-10,Nagpur,India,79.0882,21.1458,[78.5882 20.6458 79.5882 21.6458],2.925,2.335,3.703,3.127,3.262,2.542,4.225,3.521,193.0,503.0
2015-06-11,Nagpur,India,79.0882,21.1458,[78.5882 20.6458 79.5882 21.6458],2.739,2.171,3.544,3.052,3.203,2.485,4.151,3.483,166.0,524.0
2015-06-12,Nagpur,India,79.0882,21.1458,[78.5882 20.6458 79.5882 21.6458],2.523,1.978,3.205,2.748,3.065,2.41,3.958,3.346,142.0,509.0
2015-06-13,Nagpur,India,79.0882,21.1458,[78.5882 20.6458 79.5882 21.6458],2.501,1.89,3.186,2.687,3.002,2.333,3.871,3.261,172.0,535.0
2015-06-14,Nagpur,India,79.0882,21.1458,[78.5882 20.6458 79.5882 21.6458],2.501,1.881,3.167,2.648,3.023,2.355,3.907,3.274,150.0,521.0
2015-06-15,Nagpur,India,79.0882,21.1458,[78.5882 20.6458 79.5882 21.6458],2.498,1.825,3.035,2.583,2.971,2.205,3.797,3.143,120.0,518.0
2015-06-16,Nagpur,India,79.0882,21.1458,[78.5882 20.6458 79.5882 21.6458],2.337,1.75,2.945,2.388,2.951,2.12,3.816,3.106,104.0,536.0
2015-06-17,Nagpur,India,79.0882,21.1458,[78.5882 20.6458 79.5882 21.6458],2.337,1.75,2.945,2.388,2.881,2.082,3.693,2.992,104.0,511.0
2015-06-18,Nagpur,India,79.0882,21.1458,[78.5882 20.6458 79.5882 21.6458],2.337,1.822,3.035,2.431,2.848,2.045,3.697,2.956,89.0,530.0
2015-06-19,Nagpur,India,79.0882,21.1458,[78.5882 20.6458 79.5882 21.6458],2.337,1.822,3.035,2.431,2.818,2.042,3.703,2.94,88.0,479.0
2015-06-20,Nagpur,India,79.0882,21.1458,[78.5882 20.6458 79.5882 21.6458],2.337,1.626,3.162,2.401,2.807,2.015,3.693,2.934,81.0,509.0
2015-06-21,Nagpur,India,79.0882,21.1458,[78.5882 20.6458 79.5882 21.6458],2.287,1.353,2.972,2.221,2.757,1.949,3.63,2.873,91.0,489.0
2015-06-22,Nagpur,India,79.0882,21.1458,[78.5882 20.6458 79.5882 21.6458],2.055,1.121,2.696,2.005,2.648,1.734,3.606,2.744,86.0,501.0
2015-06-23,Nagpur,India,79.0882,21.1458,[78.5882 20.6458 79.5882 21.6458],2.055,1.153,2.677,2.006,2.552,1.685,3.551,2.652,82.0,500.0
2015-06-24,Nagpur,India,79.0882,21.1458,[78.5882 20.6458 79.5882 21.6458],2.055,1.121,2.576,1.927,2.434,1.619,3.431,2.569,79.0,488.0
2015-06-25,Nagpur,India,79.0882,21.1458,[78.5882 20.6458 79.5882 21.6458],1.978,1.194,2.576,1.957,2.317,1.558,3.261,2.479,92.0,508.0